Home > Weather > Gary > Past weeks

Flag for U.S.A. Weather for the Past 2 Weeks in Gary, Indiana, U.S.A.

Now
11 °F

Sunny.


Feels Like: -1 °F
Forecast: 8 / 15 °F
Wind: 8 mph from Northwest

Location: Lansing Municipal Airport

Current Time: Feb 13, 2016 at 10:19:03 AM

Latest Report: Feb 13, 2016 at 9:55 AM


Visibility: 10 mi

Pressure: 30.59 "Hg

Humidity: 39%

Dew point: -9 °F

Location of GaryLocation

Historic Weather in Gary — Graph

°F

Gary Temperature Yesterday

Maximum temperature yesterday: 26 °F (at 2:15 PM)
Minimum temperature yesterday: 9 °F (at 11:55 PM)
Average temperature yesterday: 19 °F

High & Low Weather Summary for the Past Weeks

 TemperatureHumidityPressure
High52 °F (Jan 31, 1:35 PM)100% (Feb 2, 11:15 PM)30.59 "Hg (Feb 2, 11:15 PM)
Low4 °F (Feb 13, 5:55 AM)37% (Feb 11, 2:55 PM)29.46 "Hg (Feb 2, 10:35 PM)
Average29 °F75%29.98 "Hg
* Reported Jan 29 9:15 AM — Feb 13 9:15 AM, Gary, Weather by CustomWeather, © 2016

Note: Actual official high and low records may vary slightly from our data, if they occured in-between our weather recording intervals... More about our weather records

Advertising

Gary Weather History for the Previous 24 Hours

 ConditionsComfort  
Time TempWeatherWind HumidityBarometerVisibility
9:15 AM
Sat, Feb 13
9 °FSunny.6 mph43%30.59 "Hg10 mi
8:55 AM8 °FSunny.8 mph45%30.59 "Hg10 mi
8:15 AM7 °FSunny.9 mph46%30.58 "Hg10 mi
7:55 AM6 °FSunny.8 mphN/A30.58 "Hg10 mi
7:35 AM5 °FSunny.7 mph50%30.58 "Hg10 mi
7:15 AM4 °FSunny.8 mph50%30.57 "Hg10 mi
6:55 AM4 °FSunny.10 mph51%30.57 "Hg10 mi
6:35 AM4 °FSunny.8 mph51%30.56 "Hg10 mi
6:15 AM4 °FSunny.7 mph51%30.56 "Hg10 mi
5:55 AM4 °FSunny.8 mph50%30.55 "Hg10 mi
5:15 AM5 °FClear.8 mph49%30.55 "Hg10 mi
4:55 AM5 °FClear.7 mph49%30.55 "Hg10 mi
4:35 AM5 °FClear.8 mph49%30.54 "Hg10 mi
4:15 AM5 °FClear.9 mph47%30.54 "Hg10 mi
3:55 AM5 °FClear.10 mph46%30.54 "Hg10 mi
3:35 AM5 °FClear.7 mph45%30.53 "Hg10 mi
3:15 AM6 °FClear.14 mph45%30.53 "Hg10 mi
2:55 AM6 °FClear.8 mph43%30.52 "Hg10 mi
2:15 AM6 °FClear.15 mph41%30.51 "Hg10 mi
1:55 AM7 °FClear.12 mph49%30.50 "Hg10 mi
1:35 AM7 °FClear.15 mph49%30.49 "Hg10 mi
1:15 AM8 °FClear.14 mph49%30.48 "Hg10 mi
12:55 AM8 °FClear.9 mph47%30.48 "Hg10 mi
12:35 AM8 °FClear.13 mph47%30.47 "Hg10 mi
12:15 AM9 °FClear.13 mph46%30.46 "Hg10 mi
11:55 PM
Fri, Feb 12
9 °FClear.13 mph45%30.46 "Hg10 mi
11:35 PM10 °FClear.16 mph45%30.45 "Hg10 mi
11:15 PM10 °FClear.16 mph44%30.45 "Hg10 mi
10:55 PM10 °FClear.16 mph44%30.43 "Hg10 mi
10:15 PM11 °FClear.16 mph41%30.42 "Hg10 mi
9:55 PM12 °FClear.17 mph39%30.41 "Hg10 mi
9:35 PM12 °FClear.12 mph39%30.40 "Hg10 mi
9:15 PM13 °FClear.14 mph42%30.38 "Hg10 mi
8:15 PM16 °FPassing clouds.18 mph39%30.34 "Hg10 mi
7:35 PM17 °FPassing clouds.20 mph38%30.32 "Hg10 mi
7:15 PM18 °FPassing clouds.20 mph37%30.31 "Hg10 mi
6:55 PM18 °FClear.14 mph41%30.31 "Hg10 mi
6:15 PM19 °FClear.18 mph40%30.27 "Hg10 mi
5:55 PM19 °FClear.13 mph40%30.26 "Hg10 mi
5:15 PM20 °FPassing clouds.18 mph39%30.23 "Hg10 mi
4:55 PM21 °FClear.16 mph37%30.22 "Hg10 mi
3:55 PM23 °FScattered clouds.17 mph38%30.19 "Hg10 mi
3:35 PM23 °FOvercast.20 mph41%30.18 "Hg10 mi
3:15 PM24 °FPartly sunny.18 mph43%30.17 "Hg10 mi
2:55 PM24 °FScattered clouds.21 mph42%30.16 "Hg10 mi
2:35 PM25 °FPartly sunny.20 mph41%30.16 "Hg10 mi
2:15 PM26 °FPartly sunny.15 mph43%30.15 "Hg10 mi
1:55 PM25 °FScattered clouds.15 mph45%30.15 "Hg10 mi
1:15 PM24 °FSunny.17 mph48%30.14 "Hg10 mi
12:55 PM24 °FScattered clouds.13 mph51%30.14 "Hg10 mi
12:15 PM23 °FOvercast.14 mph59%30.15 "Hg10 mi
11:55 AM23 °FOvercast.15 mph62%30.15 "Hg10 mi
11:35 AM23 °FOvercast.14 mph64%30.15 "Hg10 mi
11:15 AM23 °FOvercast.13 mph66%30.16 "Hg10 mi
10:55 AM22 °FLight snow. Overcast.13 mph71%30.16 "Hg5 mi
10:35 AM22 °FLight snow. Cloudy.12 mph71%30.16 "Hg10 mi
10:15 AM22 °FLight snow. Mostly cloudy.15 mph77%30.15 "Hg5 mi
Weather by CustomWeather, © 2016

See weather overviewHow to use our weather pages